When you browse on this site, cookies collect data to enhance your experience and personalize the content and advertising you see.
Visit our Privacy Policy to learn more. By continuing to use the site, you agree to this use of cookies and data.

Meteo pe oră la Alhimovo

Astăzi, 14 August, Vineri

Timp Temperatura Precipitaţii Vânt Presiune Umiditate
00:00 +13°C° 0 mm 1 m/s 760 mmHg 82%
01:00 +13°C° 0 mm 1 m/s 760 mmHg 83%
02:00 +13°C° 0 mm 1 m/s 760 mmHg 83%
03:00 +13°C° 0 mm 1 m/s 760 mmHg 86%
04:00 +12°C° 0 mm 1 m/s 760 mmHg 89%
05:00 +11°C° 0 mm 1 m/s 760 mmHg 92%
06:00 +13°C° 0 mm 1 m/s 760 mmHg 86%
07:00 +15°C° 0 mm 1 m/s 760 mmHg 79%
08:00 +16°C° 0 mm 2 m/s 760 mmHg 72%
09:00 +17°C° 0 mm 2 m/s 760 mmHg 69%
10:00 +18°C° 0 mm 2 m/s 759 mmHg 66%
11:00 +19°C° 0 mm 2 m/s 759 mmHg 62%
12:00 +20°C° 0 mm 2 m/s 759 mmHg 62%
13:00 +20°C° 0 mm 2 m/s 759 mmHg 62%
14:00 +21°C° 0 mm 2 m/s 759 mmHg 62%
15:00 +21°C° 0 mm 2 m/s 758 mmHg 63%
16:00 +21°C° 0 mm 2 m/s 758 mmHg 65%
17:00 +22°C° 0 mm 1 m/s 758 mmHg 67%
18:00 +20°C° 0 mm 1 m/s 758 mmHg 73%
19:00 +19°C° 0 mm 1 m/s 758 mmHg 80%
20:00 +16°C° 0 mm 1 m/s 758 mmHg 87%
21:00 +16°C° 0 mm 1 m/s 758 mmHg 90%
22:00 +15°C° 0 mm 2 m/s 758 mmHg 92%
23:00 +14°C° 0 mm 2 m/s 759 mmHg 95%

Mâine, 15 August, Sâmbătă

Timp Temperatura Precipitaţii Vânt Presiune Umiditate
00:00 +14°C° 0 mm 2 m/s 758 mmHg 95%
01:00 +14°C° 0 mm 2 m/s 758 mmHg 95%
02:00 +13°C° 0 mm 1 m/s 758 mmHg 96%
03:00 +13°C° 0 mm 1 m/s 758 mmHg 96%
04:00 +13°C° 0 mm 1 m/s 758 mmHg 96%
05:00 +13°C° 0 mm 1 m/s 758 mmHg 96%
06:00 +14°C° 0 mm 1 m/s 758 mmHg 92%
07:00 +16°C° 0 mm 1 m/s 758 mmHg 87%
08:00 +18°C° 0 mm 1 m/s 758 mmHg 83%
09:00 +20°C° 0 mm 1 m/s 758 mmHg 75%
10:00 +21°C° 0 mm 2 m/s 758 mmHg 68%
11:00 +23°C° 0 mm 2 m/s 758 mmHg 60%
12:00 +24°C° 0 mm 2 m/s 758 mmHg 61%
13:00 +24°C° 0 mm 2 m/s 758 mmHg 62%
14:00 +24°C° 0 mm 3 m/s 757 mmHg 62%
15:00 +24°C° 0 mm 3 m/s 757 mmHg 64%
16:00 +24°C° 0 mm 3 m/s 757 mmHg 65%
17:00 +24°C° 0 mm 3 m/s 757 mmHg 66%
18:00 +23°C° 0.1 mm 2 m/s 757 mmHg 73%
19:00 +20°C° 0.1 mm 2 m/s 757 mmHg 79%
20:00 +19°C° 0.1 mm 2 m/s 757 mmHg 86%
21:00 +18°C° 0 mm 2 m/s 757 mmHg 88%
22:00 +17°C° 0 mm 2 m/s 757 mmHg 90%
23:00 +17°C° 0 mm 2 m/s 757 mmHg 92%

Poimâine, 16 August, Duminică

Timp Temperatura Precipitaţii Vânt Presiune Umiditate
00:00 +16°C° 0 mm 2 m/s 757 mmHg 93%
01:00 +16°C° 0 mm 2 m/s 757 mmHg 94%
02:00 +15°C° 0 mm 2 m/s 757 mmHg 96%
03:00 +15°C° 0 mm 2 m/s 757 mmHg 96%
04:00 +15°C° 0 mm 2 m/s 757 mmHg 96%
05:00 +15°C° 0 mm 2 m/s 757 mmHg 96%
06:00 +16°C° 0 mm 2 m/s 757 mmHg 90%
07:00 +18°C° 0 mm 2 m/s 757 mmHg 83%
08:00 +20°C° 0 mm 2 m/s 757 mmHg 76%
09:00 +22°C° 0 mm 3 m/s 757 mmHg 68%
10:00 +25°C° 0 mm 3 m/s 757 mmHg 61%
11:00 +26°C° 0 mm 4 m/s 757 mmHg 53%
12:00 +27°C° 0 mm 4 m/s 757 mmHg 52%
13:00 +27°C° 0 mm 4 m/s 757 mmHg 52%
14:00 +27°C° 0 mm 4 m/s 757 mmHg 51%
15:00 +27°C° 0 mm 4 m/s 756 mmHg 53%
16:00 +27°C° 0 mm 3 m/s 756 mmHg 55%
17:00 +26°C° 0 mm 3 m/s 756 mmHg 57%
18:00 +25°C° 0 mm 3 m/s 756 mmHg 63%
19:00 +23°C° 0 mm 2 m/s 756 mmHg 69%
20:00 +20°C° 0 mm 2 m/s 756 mmHg 75%
21:00 +19°C° 0 mm 2 m/s 756 mmHg 78%
22:00 +18°C° 0 mm 2 m/s 756 mmHg 80%
23:00 +17°C° 0 mm 2 m/s 756 mmHg 83%

17 August, Luni

Timp Temperatura Precipitaţii Vânt Presiune Umiditate
00:00 +17°C° 0 mm 2 m/s 756 mmHg 88%
01:00 +16°C° 0 mm 2 m/s 756 mmHg 92%
02:00 +16°C° 0 mm 2 m/s 756 mmHg 96%
03:00 +16°C° 0 mm 2 m/s 756 mmHg 96%
04:00 +15°C° 0 mm 2 m/s 756 mmHg 96%
05:00 +15°C° 0 mm 2 m/s 756 mmHg 96%
06:00 +16°C° 0 mm 2 m/s 756 mmHg 86%
07:00 +17°C° 0 mm 2 m/s 756 mmHg 76%
08:00 +18°C° 0 mm 3 m/s 756 mmHg 66%
09:00 +19°C° 0 mm 3 m/s 756 mmHg 61%
10:00 +21°C° 0 mm 3 m/s 756 mmHg 56%
11:00 +22°C° 0 mm 3 m/s 757 mmHg 51%
12:00 +22°C° 0 mm 3 m/s 756 mmHg 49%
13:00 +24°C° 0 mm 3 m/s 756 mmHg 48%
14:00 +24°C° 0 mm 3 m/s 756 mmHg 46%
15:00 +24°C° 0 mm 3 m/s 756 mmHg 47%
16:00 +22°C° 0 mm 3 m/s 756 mmHg 47%
17:00 +22°C° 0 mm 3 m/s 756 mmHg 48%
18:00 +20°C° 0 mm 2 m/s 756 mmHg 53%
19:00 +18°C° 0 mm 2 m/s 756 mmHg 58%
20:00 +16°C° 0 mm 1 m/s 756 mmHg 64%
21:00 +16°C° 0 mm 1 m/s 756 mmHg 64%
22:00 +15°C° 0 mm 1 m/s 756 mmHg 63%
23:00 +14°C° 0 mm 0 m/s 756 mmHg 63%

18 August, Marţi

Timp Temperatura Precipitaţii Vânt Presiune Umiditate
00:00 +15°C° 0 mm 1 m/s 756 mmHg 64%
01:00 +15°C° 0 mm 1 m/s 756 mmHg 64%
02:00 +14°C° 0 mm 1 m/s 756 mmHg 65%
03:00 +14°C° 0 mm 1 m/s 756 mmHg 66%
04:00 +15°C° 0 mm 1 m/s 755 mmHg 66%
05:00 +15°C° 0 mm 1 m/s 755 mmHg 67%
06:00 +16°C° 0 mm 2 m/s 755 mmHg 67%
07:00 +17°C° 0 mm 2 m/s 755 mmHg 67%
08:00 +18°C° 0 mm 2 m/s 755 mmHg 67%
09:00 +19°C° 0 mm 2 m/s 754 mmHg 63%
10:00 +21°C° 0 mm 2 m/s 754 mmHg 60%
11:00 +24°C° 0 mm 2 m/s 754 mmHg 56%
12:00 +25°C° 0 mm 2 m/s 754 mmHg 53%
13:00 +26°C° 0 mm 2 m/s 753 mmHg 50%
14:00 +27°C° 0 mm 2 m/s 753 mmHg 47%
15:00 +27°C° 0 mm 2 m/s 753 mmHg 50%
16:00 +26°C° 0 mm 2 m/s 753 mmHg 53%
17:00 +26°C° 0 mm 2 m/s 752 mmHg 56%
18:00 +24°C° 0.1 mm 2 m/s 752 mmHg 63%
19:00 +22°C° 0.1 mm 1 m/s 752 mmHg 69%
20:00 +20°C° 0.1 mm 1 m/s 752 mmHg 76%
21:00 +19°C° 0 mm 1 m/s 752 mmHg 79%
22:00 +16°C° 0 mm 0 m/s 752 mmHg 82%
23:00 +16°C° 0 mm 0 m/s 752 mmHg 85%

19 August, Miercuri

Timp Temperatura Precipitaţii Vânt Presiune Umiditate
00:00 +15°C° 0 mm 0 m/s 752 mmHg 86%
01:00 +15°C° 0 mm 0 m/s 752 mmHg 86%
02:00 +15°C° 0 mm 0 m/s 752 mmHg 87%
03:00 +16°C° 0 mm 1 m/s 752 mmHg 87%
04:00 +15°C° 0 mm 1 m/s 752 mmHg 86%
05:00 +15°C° 0 mm 1 m/s 752 mmHg 86%
06:00 +18°C° 0 mm 1 m/s 752 mmHg 82%
07:00 +19°C° 0 mm 1 m/s 751 mmHg 77%
08:00 +21°C° 0 mm 1 m/s 751 mmHg 73%
09:00 +22°C° 0 mm 1 m/s 751 mmHg 68%
10:00 +23°C° 0 mm 1 m/s 751 mmHg 63%
11:00 +24°C° 0 mm 2 m/s 751 mmHg 58%
12:00 +25°C° 0 mm 2 m/s 751 mmHg 53%
13:00 +26°C° 0 mm 2 m/s 750 mmHg 48%
14:00 +27°C° 0 mm 2 m/s 750 mmHg 43%
15:00 +27°C° 0 mm 2 m/s 750 mmHg 47%
16:00 +27°C° 0 mm 1 m/s 750 mmHg 50%
17:00 +26°C° 0 mm 1 m/s 749 mmHg 54%
18:00 +24°C° 0 mm 1 m/s 749 mmHg 60%
19:00 +22°C° 0 mm 1 m/s 749 mmHg 65%
20:00 +19°C° 0 mm 2 m/s 749 mmHg 71%
21:00 +19°C° 0 mm 2 m/s 749 mmHg 72%
22:00 +18°C° 0 mm 2 m/s 748 mmHg 73%
23:00 +18°C° 0 mm 2 m/s 748 mmHg 74%
Arată mai mult